GW3555 Weather Reports


Display with metric or nautical units.
time (UTC)temp
F
wind
direction
speed
MPH
gust
MPH
rain 1hr
in
rain 24hr
in
rain mn
in
humidity
%
barometer
mb
20260901054033 60 251 2.0 4.0 0.00 0.00 0.00 54 1011.5
20260901053533 60 277 1.0 4.0 0.00 0.00 0.00 54 1011.5
20260901053242 61 264 1.0 4.0 0.00 0.00 0.00 53 1011.5
20260901052540 61 257 2.0 4.0 0.00 0.00 0.00 52 1011.6
20260901052043 61 242 2.0 3.0 0.00 0.00 0.00 53 1011.7
20260901051613 61 248 0.0 4.0 0.00 0.00 0.00 52 1011.5
20260901051021 61 246 2.0 4.0 0.00 0.00 0.00 52 1011.6
20260901050524 62 258 1.0 4.0 0.00 0.00 0.00 52 1011.6
20260901050159 62 285 0.0 5.0 0.00 0.00 0.00 51 1011.7
20260901045536 62 259 1.0 5.0 0.00 0.00 0.00 51 1011.8
20260901045017 62 231 2.0 4.0 0.00 0.00 0.00 51 1011.7
20260901044703 62 244 2.0 4.0 0.00 0.00 0.00 51 1011.5
20260901044025 62 244 2.0 4.0 0.00 0.00 0.00 50 1011.6
20260901043528 63 236 2.0 4.0 0.00 0.00 0.00 50 1011.7
20260901043224 63 246 2.0 7.0 0.00 0.00 0.00 49 1011.7
20260901042534 63 244 3.0 7.0 0.00 0.00 0.00 49 1011.7
20260901042029 64 244 2.0 5.0 0.00 0.00 0.00 48 1011.7
20260901041720 65 248 3.0 5.0 0.00 0.00 0.00 47 1011.7
20260901041025 65 227 2.0 5.0 0.00 0.00 0.00 45 1011.6
20260901040525 65 232 2.0 5.0 0.00 0.00 0.00 47 1011.4
20260901040223 66 236 1.0 3.0 0.00 0.00 0.00 46 1011.3
20260901035524 66 253 0.0 3.0 0.00 0.00 0.00 45 1011.4
20260901035034 66 230 0.0 3.0 0.00 0.00 0.00 45 1011.4
20260901034558 66 278 0.0 3.0 0.00 0.00 0.00 45 1011.4
20260901034030 67 224 0.0 3.0 0.00 0.00 0.00 45 1011.3
20260901033537 67 218 1.0 4.0 0.00 0.00 0.00 45 1011.2
20260901033149 67 234 2.0 4.0 0.00 0.00 0.00 45 1011.2
20260901032519 67 222 0.0 3.0 0.00 0.00 0.00 44 1011.0
20260901032020 68 223 0.0 4.0 0.00 0.00 0.00 44 1011.0
20260901031734 68 218 1.0 4.0 0.00 0.00 0.00 44 1010.9
20260901031031 68 234 0.0 2.0 0.00 0.00 0.00 43 1010.9
20260901030523 68 229 1.0 2.0 0.00 0.00 0.00 43 1010.9
20260901030222 68 236 0.0 3.0 0.00 0.00 0.00 43 1010.9
20260901025538 68 241 0.0 3.0 0.00 0.00 0.00 43 1011.0
20260901025042 68 239 1.0 2.0 0.00 0.00 0.00 44 1011.0
20260901024640 68 229 0.0 3.0 0.00 0.00 0.00 44 1010.8
20260901024031 68 234 0.0 3.0 0.00 0.00 0.00 44 1010.8
20260901023531 69 231 1.0 3.0 0.00 0.00 0.00 44 1011.0
20260901023145 69 228 1.0 2.0 0.00 0.00 0.00 43 1010.9
20260901022541 70 191 0.0 0.0 0.00 0.00 0.00 42 1011.0
20260901022023 71 186 0.0 0.0 0.00 0.00 0.00 40 1011.2
20260901021552 71 186 0.0 0.0 0.00 0.00 0.00 39 1011.0
20260901021038 71 186 0.0 0.0 0.00 0.00 0.00 39 1010.9
20260901020533 72 186 0.0 1.0 0.00 0.00 0.00 38 1011.0
20260901020157 72 186 0.0 2.0 0.00 0.00 0.00 39 1011.0
20260901015544 72 186 0.0 3.0 0.00 0.00 0.00 38 1011.1
20260901015028 73 188 1.0 3.0 0.00 0.00 0.00 37 1011.1
20260901014650 73 182 1.0 3.0 0.00 0.00 0.00 37 1011.0
20260901014032 73 150 0.0 3.0 0.00 0.00 0.00 37 1011.1
20260901013542 73 175 1.0 7.0 0.00 0.00 0.00 37 1011.1
20260901013220 73 176 1.0 2.0 0.00 0.00 0.00 37 1011.2
20260901012528 73 186 0.0 3.0 0.00 0.00 0.00 37 1011.1
20260901012039 73 190 0.0 3.0 0.00 0.00 0.00 37 1011.3
20260901011633 73 246 1.0 2.0 0.00 0.00 0.00 37 1011.4
20260901011022 74 184 0.0 2.0 0.00 0.00 0.00 37 1011.3
20260901010523 74 184 0.0 3.0 0.00 0.00 0.00 36 1011.3
20260901010200 74 193 0.0 4.0 0.00 0.00 0.00 36 1011.4
20260901005534 74 241 1.0 4.0 0.00 0.00 0.00 36 1011.4
20260901005030 74 187 1.0 5.0 0.00 0.00 0.00 36 1011.4
20260901004631 75 191 2.0 5.0 0.00 0.00 0.00 36 1011.6
20260901004037 75 186 1.0 4.0 0.00 0.00 0.00 36 1011.6
20260901003532 75 196 1.0 4.0 0.00 0.00 0.00 36 1011.7
20260901003131 75 184 2.0 4.0 0.00 0.00 0.00 36 1011.9
20260901002530 76 179 1.0 4.0 0.00 0.00 0.00 35 1011.8
20260901002038 76 168 1.0 4.0 0.00 0.00 0.00 34 1011.9
20260901001720 77 171 1.0 4.0 0.00 0.00 0.00 35 1012.1
20260901001024 78 98 1.0 5.0 0.00 0.00 0.00 33 1012.2
20260901000524 78 105 1.0 6.0 0.00 0.00 0.00 33 1012.3
20260901000155 79 158 2.0 6.0 0.00 0.00 0.00 33 1012.3
20260831235524 79 124 1.0 5.0 0.00 0.00 0.00 32 1012.4
20260831235019 79 190 1.0 5.0 0.00 0.00 0.00 33 1012.4
20260831234656 79 96 0.0 6.0 0.00 0.00 0.00 32 1012.4
20260831234025 79 218 1.0 6.0 0.00 0.00 0.00 33 1012.4
20260831233531 79 74 1.0 4.0 0.00 0.00 0.00 33 1012.5
20260831233133 79 189 2.0 4.0 0.00 0.00 0.00 33 1012.5
20260831232603 79 70 1.0 5.0 0.00 0.00 0.00 32 1012.4
20260831232041 79 360 1.0 5.0 0.00 0.00 0.00 33 1012.4
20260831231652 78 37 0.0 4.0 0.00 0.00 0.00 33 1012.5
20260831231032 78 184 1.0 7.0 0.00 0.00 0.00 33 1012.4
20260831230534 78 14 2.0 7.0 0.00 0.00 0.00 33 1012.6
20260831230219 78 178 2.0 7.0 0.00 0.00 0.00 32 1012.6
20260831225528 78 266 1.0 7.0 0.00 0.00 0.00 34 1012.7
20260831225041 78 30 1.0 6.0 0.00 0.00 0.00 33 1012.9
20260831224628 79 352 1.0 3.0 0.00 0.00 0.00 32 1013.0
20260831224046 79 74 1.0 4.0 0.00 0.00 0.00 33 1013.0
20260831223542 79 80 1.0 4.0 0.00 0.00 0.00 33 1013.0
20260831223220 79 33 1.0 4.0 0.00 0.00 0.00 33 1013.1
20260831222539 79 71 1.0 5.0 0.00 0.00 0.00 33 1013.1
20260831222039 79 179 1.0 4.0 0.00 0.00 0.00 33 1013.3
20260831221711 79 118 1.0 10.0 0.00 0.00 0.00 33 1013.4
20260831221032 79 207 2.0 7.0 0.00 0.00 0.00 34 1013.4
20260831220524 79 352 2.0 7.0 0.00 0.00 0.00 33 1013.4
20260831220233 79 52 2.0 5.0 0.00 0.00 0.00 34 1013.6
20260831215532 79 124 2.0 4.0 0.00 0.00 0.00 33 1013.7
20260831215038 79 84 0.0 8.0 0.00 0.00 0.00 35 1013.7
20260831214659 79 160 3.0 7.0 0.00 0.00 0.00 34 1013.7
20260831214019 78 180 1.0 4.0 0.00 0.00 0.00 35 1013.9
20260831213524 78 17 2.0 5.0 0.00 0.00 0.00 36 1013.9
20260831213141 77 185 2.0 8.0 0.00 0.00 0.00 35 1014.0
20260831212524 77 297 3.0 8.0 0.00 0.00 0.00 35 1014.1
20260831212030 77 306 1.0 4.0 0.00 0.00 0.00 36 1014.2
20260831211620 77 170 1.0 3.0 0.00 0.00 0.00 36 1014.2
20260831211040 78 334 1.0 5.0 0.00 0.00 0.00 35 1014.4
20260831210540 78 85 1.0 5.0 0.00 0.00 0.00 36 1014.4
20260831210141 78 360 2.0 5.0 0.00 0.00 0.00 35 1014.4
20260831205536 77 84 1.0 4.0 0.00 0.00 0.00 35 1014.5
20260831205036 77 12 1.0 9.0 0.00 0.00 0.00 35 1014.6
20260831204647 77 80 2.0 9.0 0.00 0.00 0.00 36 1014.6
20260831204026 77 352 1.0 6.0 0.00 0.00 0.00 37 1014.6
20260831203549 76 236 1.0 6.0 0.00 0.00 0.00 38 1014.9
20260831203230 76 165 2.0 7.0 0.00 0.00 0.00 37 1014.9
20260831202532 76 92 2.0 5.0 0.00 0.00 0.00 38 1014.9
20260831202046 75 75 1.0 5.0 0.00 0.00 0.00 38 1014.9
20260831201631 75 43 2.0 5.0 0.00 0.00 0.00 38 1015.1
20260831201030 75 142 1.0 5.0 0.00 0.00 0.00 38 1015.1
20260831200538 74 336 2.0 5.0 0.00 0.00 0.00 38 1015.2
20260831200134 74 113 1.0 5.0 0.00 0.00 0.00 38 1015.3
20260831195537 74 331 1.0 5.0 0.00 0.00 0.00 38 1015.4
20260831195025 74 23 2.0 5.0 0.00 0.00 0.00 39 1015.5
20260831194655 74 340 1.0 5.0 0.00 0.00 0.00 39 1015.4
20260831194042 73 343 1.0 5.0 0.00 0.00 0.00 40 1015.4
20260831193542 73 161 2.0 6.0 0.00 0.00 0.00 40 1015.7
20260831193145 73 310 2.0 6.0 0.00 0.00 0.00 39 1015.6
20260831192537 73 311 1.0 5.0 0.00 0.00 0.00 39 1015.7
20260831192041 73 138 2.0 7.0 0.00 0.00 0.00 40 1015.7
20260831191628 72 223 1.0 7.0 0.00 0.00 0.00 40 1015.6
20260831191045 73 207 2.0 8.0 0.00 0.00 0.00 40 1015.7
20260831190519 73 23 2.0 8.0 0.00 0.00 0.00 40 1015.8
20260831190221 73 57 1.0 4.0 0.00 0.00 0.00 40 1015.9
20260831185533 72 266 1.0 5.0 0.00 0.00 0.00 41 1016.0
20260831185023 72 161 2.0 8.0 0.00 0.00 0.00 41 1016.1
20260831184701 72 234 2.0 6.0 0.00 0.00 0.00 41 1016.2
20260831184041 71 90 1.0 6.0 0.00 0.00 0.00 42 1016.1
20260831183529 71 110 1.0 4.0 0.00 0.00 0.00 42 1016.2
20260831183129 71 246 1.0 7.0 0.00 0.00 0.00 43 1016.3
20260831182531 71 36 2.0 7.0 0.00 0.00 0.00 43 1016.3
20260831182037 71 113 2.0 4.0 0.00 0.00 0.00 42 1016.3
20260831181624 70 213 2.0 5.0 0.00 0.00 0.00 44 1016.3
20260831181045 70 71 2.0 5.0 0.00 0.00 0.00 44 1016.3
20260831180525 69 275 1.0 4.0 0.00 0.00 0.00 45 1016.3
20260831180137 68 198 1.0 4.0 0.00 0.00 0.00 47 1016.4
20260831175527 68 44 1.0 4.0 0.00 0.00 0.00 48 1016.4
20260831175033 67 26 0.0 5.0 0.00 0.00 0.00 50 1016.3
20260831174635 67 352 1.0 4.0 0.00 0.00 0.00 49 1016.5
20260831174024 66 335 0.0 4.0 0.00 0.00 0.00 51 1016.4
20260831173540 65 348 0.0 4.0 0.00 0.00 0.00 51 1016.6
20260831173127 65 341 1.0 4.0 0.00 0.00 0.00 52 1016.6
20260831172529 65 352 1.0 4.0 0.00 0.00 0.00 53 1016.6
20260831172032 64 331 0.0 4.0 0.00 0.00 0.00 52 1016.7
20260831171636 64 28 0.0 3.0 0.00 0.00 0.00 54 1016.8
20260831171037 63 30 0.0 3.0 0.00 0.00 0.00 55 1016.7
20260831170524 63 194 0.0 4.0 0.00 0.00 0.00 56 1016.7
20260831170227 62 317 0.0 2.0 0.00 0.00 0.00 55 1016.7
20260831165536 62 90 0.0 2.0 0.00 0.00 0.00 56 1016.7
20260831165026 61 5 0.0 2.0 0.00 0.00 0.00 57 1016.7
20260831164702 61 121 0.0 3.0 0.00 0.00 0.00 58 1016.7
20260831164038 60 189 0.0 3.0 0.00 0.00 0.00 59 1016.6
20260831163528 59 97 0.0 3.0 0.00 0.00 0.00 60 1016.9
20260831163136 58 50 0.0 3.0 0.00 0.00 0.00 61 1017.0
20260831162521 58 342 0.0 3.0 0.00 0.00 0.00 62 1016.9
20260831162026 57 84 1.0 3.0 0.00 0.00 0.00 62 1017.0
20260831161700 57 117 0.0 0.0 0.00 0.00 0.00 63 1017.1
20260831161037 56 57 0.0 3.0 0.00 0.00 0.00 64 1017.2
20260831160536 56 352 0.0 3.0 0.00 0.00 0.00 64 1017.1
20260831160220 56 348 0.0 0.0 0.00 0.00 0.00 65 1017.2
20260831155526 55 352 0.0 0.0 0.00 0.00 0.00 66 1017.3
20260831155042 55 282 0.0 0.0 0.00 0.00 0.00 67 1017.2
20260831154725 54 273 0.0 0.0 0.00 0.00 0.00 68 1017.3
20260831154038 54 343 0.0 0.0 0.00 0.00 0.00 68 1017.5
20260831153523 53 343 0.0 0.0 0.00 0.00 0.00 69 1017.4
20260831153126 53 336 0.0 0.0 0.00 0.00 0.00 71 1017.3
20260831152549 52 311 0.0 0.0 0.00 0.00 0.00 72 1017.5
20260831152025 52 311 0.0 0.0 0.00 0.00 0.00 73 1017.6
20260831151728 52 310 0.0 0.0 0.00 0.00 0.00 73 1017.5
20260831151043 51 306 0.0 1.0 0.00 0.00 0.00 74 1017.5
20260831150528 51 309 0.0 1.0 0.00 0.00 0.00 74 1017.3
20260831150220 51 302 0.0 2.0 0.00 0.00 0.00 74 1017.3
20260831145532 50 284 0.0 2.0 0.00 0.00 0.00 75 1017.3
20260831145028 50 227 0.0 1.0 0.00 0.00 0.00 76 1017.5
20260831144636 50 302 0.0 0.0 0.00 0.00 0.00 77 1017.5
20260831144041 50 306 0.0 2.0 0.00 0.00 0.00 78 1017.5
20260831143530 50 306 0.0 2.0 0.00 0.00 0.00 77 1017.4
20260831143151 49 275 0.0 0.0 0.00 0.00 0.00 79 1017.3
20260831142544 49 275 0.0 0.0 0.00 0.00 0.00 79 1017.3
20260831142045 49 275 0.0 0.0 0.00 0.00 0.00 80 1017.3
20260831141634 48 275 0.0 0.0 0.00 0.00 0.00 80 1017.4
20260831141029 48 275 0.0 0.0 0.00 0.00 0.00 80 1017.2
20260831140619 47 279 0.0 0.0 0.00 0.00 0.00 80 1017.3
20260831140051 47 279 0.0 0.0 0.00 0.00 0.00 80 1017.2
20260831135529 47 279 0.0 0.0 0.00 0.00 0.00 80 1017.2
20260831135033 47 279 0.0 0.0 0.00 0.00 0.00 80 1017.1
20260831134625 47 279 0.0 2.0 0.00 0.00 0.00 79 1017.0
20260831134032 48 279 0.0 2.0 0.00 0.00 0.00 78 1017.1
20260831133532 48 279 1.0 3.0 0.00 0.00 0.00 79 1016.9
20260831133132 48 246 1.0 3.0 0.00 0.00 0.00 79 1017.0
20260831132524 48 246 2.0 3.0 0.00 0.00 0.00 79 1016.9
20260831132026 48 259 2.0 3.0 0.00 0.00 0.00 79 1016.9
20260831131630 48 273 0.0 0.0 0.00 0.00 0.00 79 1016.9
20260831131030 48 261 0.0 0.0 0.00 0.00 0.00 78 1016.8
20260831130523 48 261 0.0 0.0 0.00 0.00 0.00 78 1016.8
20260831130134 48 261 0.0 0.0 0.00 0.00 0.00 78 1017.0
20260831125533 48 261 0.0 0.0 0.00 0.00 0.00 78 1016.9
20260831125026 48 261 0.0 0.0 0.00 0.00 0.00 78 1016.8
20260831124624 48 261 0.0 0.0 0.00 0.00 0.00 78 1016.8
20260831124025 48 261 0.0 0.0 0.00 0.00 0.00 79 1016.7
20260831123529 48 271 0.0 0.0 0.00 0.00 0.00 78 1016.7
20260831123043 48 265 0.0 0.0 0.00 0.00 0.00 78 1016.7
20260831122526 48 265 0.0 0.0 0.00 0.00 0.00 78 1016.7
20260831122024 48 268 0.0 0.0 0.00 0.00 0.00 77 1016.8
20260831121628 48 268 0.0 1.0 0.00 0.00 0.00 78 1016.7
20260831121037 48 261 0.0 2.0 0.00 0.00 0.00 77 1016.8
20260831120538 48 261 1.0 2.0 0.00 0.00 0.00 77 1016.9
20260831120113 49 261 0.0 3.0 0.00 0.00 0.00 77 1016.9
20260831115533 49 261 1.0 3.0 0.00 0.00 0.00 77 1016.9
20260831115028 49 265 1.0 2.0 0.00 0.00 0.00 77 1016.9
20260831114629 49 263 1.0 2.0 0.00 0.00 0.00 77 1017.0
20260831114018 49 250 0.0 2.0 0.00 0.00 0.00 77 1016.9
20260831113536 49 248 1.0 2.0 0.00 0.00 0.00 77 1017.0
20260831113142 49 240 1.0 2.0 0.00 0.00 0.00 76 1017.0
20260831112532 49 239 1.0 2.0 0.00 0.00 0.00 77 1017.1
20260831112024 49 239 1.0 2.0 0.00 0.00 0.00 76 1017.0
20260831111651 49 238 1.0 3.0 0.00 0.00 0.00 76 1017.0
20260831111019 49 238 1.0 3.0 0.00 0.00 0.00 76 1017.1
20260831110539 49 253 0.0 2.0 0.00 0.00 0.00 76 1017.1
20260831110158 49 253 0.0 3.0 0.00 0.00 0.00 75 1017.1
20260831105538 49 253 0.0 3.0 0.00 0.00 0.00 76 1017.1
20260831105025 49 274 0.0 2.0 0.00 0.00 0.00 75 1017.2
20260831104641 49 252 1.0 3.0 0.00 0.00 0.00 76 1017.1
20260831104026 49 248 1.0 3.0 0.00 0.00 0.00 75 1017.2
20260831103541 50 245 1.0 3.0 0.00 0.00 0.00 75 1017.2
20260831103138 50 243 1.0 3.0 0.00 0.00 0.00 75 1017.1
20260831102532 50 246 1.0 3.0 0.00 0.00 0.00 74 1017.1
20260831102028 50 246 2.0 3.0 0.00 0.00 0.00 75 1017.0
20260831101629 50 267 1.0 3.0 0.00 0.00 0.00 75 1017.0
20260831101041 50 273 1.0 3.0 0.00 0.00 0.00 74 1017.1
20260831100532 50 246 1.0 3.0 0.00 0.00 0.00 74 1017.1
20260831100046 50 245 1.0 3.0 0.00 0.00 0.00 74 1016.9
20260831095535 50 246 1.0 3.0 0.00 0.00 0.00 74 1016.9
20260831095031 50 244 1.0 3.0 0.00 0.00 0.00 74 1016.9
20260831094643 50 248 1.0 4.0 0.00 0.00 0.00 73 1016.8
20260831094033 51 249 1.0 4.0 0.00 0.00 0.00 73 1016.8
20260831093529 51 244 2.0 3.0 0.00 0.00 0.00 73 1016.8
20260831093137 51 246 1.0 3.0 0.00 0.00 0.00 73 1016.8
20260831092529 51 240 0.0 0.0 0.00 0.00 0.00 72 1016.9
20260831092028 51 240 0.0 0.0 0.00 0.00 0.00 72 1016.9
20260831091647 51 240 0.0 1.0 0.00 0.00 0.00 72 1016.9
20260831091026 51 240 0.0 2.0 0.00 0.00 0.00 72 1016.8
20260831090524 51 239 1.0 3.0 0.00 0.00 0.00 71 1016.9
20260831090216 52 239 1.0 3.0 0.00 0.00 0.00 71 1016.9
20260831085534 52 228 0.0 4.0 0.00 0.00 0.00 70 1016.9
20260831085026 52 244 2.0 4.0 0.00 0.00 0.00 70 1016.9
20260831084634 52 244 2.0 4.0 0.00 0.00 0.00 71 1016.8
20260831084033 52 242 0.0 2.0 0.00 0.00 0.00 71 1016.9
20260831083542 52 242 0.0 0.0 0.00 0.00 0.00 71 1017.1
20260831083127 52 229 0.0 1.0 0.00 0.00 0.00 70 1017.0
20260831082518 52 228 0.0 3.0 0.00 0.00 0.00 70 1017.1
20260831082034 52 228 1.0 3.0 0.00 0.00 0.00 70 1017.2
20260831081547 52 229 1.0 3.0 0.00 0.00 0.00 70 1017.2
20260831081027 52 238 1.0 3.0 0.00 0.00 0.00 69 1017.2
20260831080533 52 234 1.0 2.0 0.00 0.00 0.00 69 1017.1
20260831080156 53 235 1.0 3.0 0.00 0.00 0.00 69 1017.1
20260831075528 53 244 1.0 4.0 0.00 0.00 0.00 69 1017.0
20260831075024 53 243 2.0 4.0 0.00 0.00 0.00 69 1016.9
20260831074631 53 234 1.0 3.0 0.00 0.00 0.00 68 1016.9
20260831074025 53 240 2.0 3.0 0.00 0.00 0.00 68 1017.0
20260831073525 53 242 1.0 3.0 0.00 0.00 0.00 68 1017.0
20260831073127 53 226 1.0 3.0 0.00 0.00 0.00 67 1016.9
20260831072521 53 236 1.0 3.0 0.00 0.00 0.00 67 1017.0
20260831072027 54 227 2.0 3.0 0.00 0.00 0.00 67 1016.9
20260831071625 54 238 1.0 3.0 0.00 0.00 0.00 66 1016.9
20260831071019 54 252 2.0 3.0 0.00 0.00 0.00 66 1016.8
20260831070541 54 228 1.0 3.0 0.00 0.00 0.00 66 1016.9
20260831070137 54 227 2.0 3.0 0.00 0.00 0.00 66 1017.1
20260831065525 54 228 2.0 3.0 0.00 0.00 0.00 66 1017.1
20260831065025 54 242 1.0 3.0 0.00 0.00 0.00 66 1017.1
20260831064629 54 234 1.0 3.0 0.00 0.00 0.00 66 1017.1
20260831064028 55 231 2.0 4.0 0.00 0.00 0.00 66 1017.2
20260831063521 55 201 0.0 4.0 0.00 0.00 0.00 65 1017.1
20260831063133 55 227 1.0 3.0 0.00 0.00 0.00 64 1017.1
20260831062525 55 241 1.0 3.0 0.00 0.00 0.00 64 1017.1
20260831062035 55 227 1.0 3.0 0.00 0.00 0.00 64 1017.1
20260831061635 55 234 1.0 2.0 0.00 0.00 0.00 64 1017.0
20260831061031 56 235 1.0 3.0 0.00 0.00 0.00 63 1017.1
20260831060520 56 229 0.0 3.0 0.00 0.00 0.00 63 1017.2
20260831060143 56 233 1.0 3.0 0.00 0.00 0.00 63 1017.1
20260831055542 56 224 1.0 4.0 0.00 0.00 0.00 62 1017.1
20260831055042 56 236 0.0 4.0 0.00 0.00 0.00 62 1017.2
20260831054633 56 251 1.0 4.0 0.00 0.00 0.00 62 1017.0